Regional Weather Roundup
Issued by NWS

Home | Current Version | Previous Version | Graphics & Text | Print | Product List | Glossary On
Versions: 1 2 3 4 5 6 7 8 9 10 11 12 13 14 15 16 17 18 19 20 21 22 23 24 25 26 27 28 29 30 31 32 33 34 35 36 37 38 39 40 41 42 43 44 45 46 47 48 49 50
000
ASUS43 KIND 160609
RWRIN

WEATHER ROUNDUP FOR INDIANA
NATIONAL WEATHER SERVICE INDIANAPOLIS IN
200 AM EDT WED APR 16 2014

NOTE: "FAIR" INDICATES FEW OR NO CLOUDS BELOW 12,000 FEET WITH NO
SIGNIFICANT WEATHER AND/OR OBSTRUCTIONS TO VISIBILITY.

* - STATION DOES NOT REPORT WEATHER SUCH AS PRECIPITATION OR FOG.

+ - STATION NOT QUALITY CONTROLLED BY THE NATIONAL WEATHER SERVICE.
    USE DATA WITH CAUTION...ESPECIALLY DEWPOINT AND RELATIVE
    HUMIDITY OBSERVATIONS.

INZ001>003-010>013-019-020-160700-
NORTHWEST INDIANA

CITY           SKY/WX    TMP DP  RH WIND       PRES   REMARKS
GARY /AIRPORT/ FAIR      32  22  67 S3        30.24R
LA PORTE +     FAIR      26  16  66 CALM      30.25R
6HR MIN TEMP:  24; 6HR MAX TEMP:  32;

MICHIGAN CITY+ FAIR      28  14  54 SE3       30.25R
MONTICELLO +   FAIR      30  19  61 CALM      30.24R
RENSSELAER +   FAIR      30  21  69 CALM      30.25R
VALPARAISO     FAIR      23  18  81 E3        30.24R
6HR MIN TEMP:  23; 6HR MAX TEMP:  33;


$$

LMZ046-743>745-160700-
SOUTHERN LAKE MICHIGAN

STATION/POSITION TIME  TEMP WIND        PRES
                       AIR  DIR/SP/G
                 (UTC) (F)  (DEG/KT/KT) (MB)
MICHIGAN CITY    0600   30  120/  9/ 11   N/A

$$

INZ004-005-014>016-021>024-160700-
NORTH CENTRAL INDIANA

CITY           SKY/WX    TMP DP  RH WIND       PRES   REMARKS
GOSHEN         FAIR      25  16  68 SE5       30.24S WCI  19
6HR MIN TEMP:  24; 6HR MAX TEMP:  32;

LOGANSPORT +   FAIR      27  19  74 SE3       30.26R
PERU/GRISSOM   FAIR      26  20  77 SE6       30.25R WCI  20
6HR MIN TEMP:  26; 6HR MAX TEMP:  35;

ROCHESTER +    FAIR      32  19  59 SE7       30.25S WCI  26
SOUTH BEND     FAIR      28  13  53 SE5       30.25R WCI  23
6HR MIN TEMP:  27; 6HR MAX TEMP:  32;

WARSAW +       FAIR      27  18  69 CALM      30.25R

$$

INZ006>009-017-018-025>027-160700-
NORTHEAST INDIANA

CITY           SKY/WX    TMP DP  RH WIND       PRES   REMARKS
ANGOLA *+      CLEAR     23  16  74 CALM      30.24S
AUBURN +       FAIR      23  18  80 CALM      30.26R
FORT WAYNE     FAIR      24  16  71 CALM      30.26S
6HR MIN TEMP:  24; 6HR MAX TEMP:  32;


$$

INZ028-029-035-036-043>045-051>053-160700-
WEST CENTRAL INDIANA

CITY           SKY/WX    TMP DP  RH WIND       PRES   REMARKS
GREENCASTLE +  FAIR      30  21  69 CALM      30.26R
LAFAYETTE      FAIR      27  18  69 CALM      30.25R
6HR MIN TEMP:  27; 6HR MAX TEMP:  35;

TERRE HAUTE    FAIR      30  22  72 SE6       30.26R WCI  24
6HR MIN TEMP:  29; 6HR MAX TEMP:  38;


$$

INZ030>032-037>040-046>048-054>057-064-065-160700-
CENTRAL INDIANA

CITY           SKY/WX    TMP DP  RH WIND       PRES   REMARKS
CP ATTERBURY + FAIR      28  25  86 CALM      30.28R
INDIANAPOLIS   FAIR      28  19  69 SE7       30.25R WCI  21
6HR MIN TEMP:  28; 6HR MAX TEMP:  34;

-EAGLE CREEK   FAIR      28  20  71 CALM      30.25R
6HR MIN TEMP:  28; 6HR MAX TEMP:  35;

KOKOMO *+      FAIR      27  18  69 SE6       30.25R WCI  20
MARION +       FAIR      26  17  68 SE5       30.26R WCI  21
MT COMFORT *+  FAIR      27  23  86 SE3       30.26R
SHELBYVILLE    FAIR      31  21  66 E5        30.26R WCI  26
6HR MIN TEMP:  30; 6HR MAX TEMP:  37;

ZIONSVILLE +   FAIR      26  22  84 CALM      30.26R
6HR MIN TEMP:  26; 6HR MAX TEMP:  35;


$$

INZ033-034-041-042-049-050-058-059-160700-
EAST CENTRAL INDIANA

CITY           SKY/WX    TMP DP  RH WIND       PRES   REMARKS
MUNCIE         FAIR      27  15  61 SE3       30.26R
6HR MIN TEMP:  25; 6HR MAX TEMP:  33;


$$

INZ060-061-067>069-081>083-085>088-160700-
SOUTHWEST INDIANA

CITY           SKY/WX    TMP DP  RH WIND       PRES   REMARKS
EVANSVILLE     FAIR      34  28  79 CALM      30.29R
6HR MIN TEMP:  34; 6HR MAX TEMP:  43;

HUNTINGBURG *+ FAIR      30  25  80 SE5       30.28S WCI  25
6HR MIN TEMP:  30; 6HR MAX TEMP:  39;

WASHINGTON +   FAIR      32  27  81 SE3       30.27S
6HR MIN TEMP:  32; 6HR MAX TEMP:  39;


$$

INZ062-063-066-070>080-084-089>092-160700-
SOUTH CENTRAL AND SOUTHEAST INDIANA

CITY           SKY/WX    TMP DP  RH WIND       PRES   REMARKS
BLOOMINGTON    FAIR      29  22  75 CALM      30.26R
6HR MIN TEMP:  27; 6HR MAX TEMP:  37;


$$




USA.gov is the U.S. government's official web portal to all federal, state and local government web resources and services.